Laconia, NH

4:50 AM EST on November 18, 2019 (GMT -0500)
Laconia Municipal

Weather History for KLCI - October, 2019

Change the Weather History Date:

Wednesday, October 23, 2019

  Actual Average Record
Temperature  
Mean Temperature 57 °F -  
Max Temperature 64 °F 55 °F 71 °F (1984)
Min Temperature 50 °F 36 °F 24 °F (1997)
Degree Days  
Heating Degree Days 8    
Growing Degree Days 7 (Base 50)    
Moisture  
Dew Point 46 °F    
Average Humidity 80    
Maximum Humidity 100    
Minimum Humidity 41    
Precipitation  
Precipitation 0.45 in - - ()
Sea Level Pressure  
Sea Level Pressure 29.85 in    
Wind  
Wind Speed 6 mph ()    
Max Wind Speed 16 mph    
Max Gust Speed 23 mph    
Visibility 8.1 miles    
Events Rain    
Averages and records for this station are not official NWS values.
T = Trace of Precipitation, MM = Missing Value Source: Averaged Metar Reports

Daily Weather History Graph

Daily Weather History Graph

Search for Another Location

Airport or City:

Astronomy

Oct. 23, 2019 Rise Set
Actual Time 7:09 AM EDT 5:49 PM EDT
Civil Twilight 6:40 AM EDT 6:19 PM EDT
Nautical Twilight 6:06 AM EDT 6:52 PM EDT
Astronomical Twilight 5:33 AM EDT 7:25 PM EDT
Moon 1:10 AM EDT (10/23) 3:50 PM EDT (10/23)
Length of Visible Light 11h 39m
Length of Day
10h 40m
Waning Crescent, 27% of the Moon is Illuminated
Oct 23
Waning Crescent
Oct 27
New
Nov 4
First Quarter
Nov 12
Full
Nov 19
Last Quarter

Hourly Weather History & Observations

Time (EDT) Temp. Dew Point Humidity Pressure Visibility Wind Dir Wind Speed Gust Speed Precip Events Conditions
12:56 AM 51.1 °F 51.1 °F 100% 29.92 in 4.0 mi NE 9.2 mph - 0.08 in Rain Rain
1:56 AM 51.1 °F 50.0 °F 96% 29.89 in 5.0 mi NE 11.5 mph - 0.05 in Rain Light Rain
2:56 AM 51.1 °F 50.0 °F 96% 29.87 in 7.0 mi ENE 8.1 mph - 0.06 in Rain Light Rain
3:56 AM 51.1 °F 50.0 °F 96% 29.82 in 10.0 mi ENE 10.4 mph - 0.03 in   Overcast
4:56 AM 51.1 °F 50.0 °F 96% 29.80 in 4.0 mi NE 10.4 mph - 0.06 in Rain Rain
5:56 AM 51.1 °F 50.0 °F 96% 29.80 in 2.0 mi ENE 5.8 mph - 0.04 in Rain Light Rain
6:31 AM 50.0 °F 50.0 °F 100% 29.81 in 3.0 mi Calm Calm - 0.03 in Rain Light Rain
6:39 AM 50.0 °F 50.0 °F 100% 29.81 in 4.0 mi Calm Calm - 0.03 in Rain Light Rain
6:56 AM 50.0 °F 50.0 °F 100% 29.80 in 1.8 mi NNW 3.5 mph - 0.05 in Rain Light Rain
7:10 AM 50.0 °F 50.0 °F 100% 29.81 in 3.0 mi West 3.5 mph - 0.03 in Rain Rain
7:40 AM 50.0 °F 50.0 °F 100% 29.80 in 7.0 mi Calm Calm - 0.06 in Rain Light Rain
7:56 AM 50.0 °F 50.0 °F 100% 29.79 in 7.0 mi NE 3.5 mph - 0.07 in Rain Light Rain
8:05 AM 50.0 °F 50.0 °F 100% 29.79 in 10.0 mi Calm Calm - 0.01 in Rain Light Rain
8:34 AM 51.8 °F 51.8 °F 100% 29.76 in 10.0 mi NNW 4.6 mph - 0.01 in   Overcast
8:56 AM 51.1 °F 51.1 °F 100% 29.78 in 10.0 mi East 3.5 mph - 0.01 in   Overcast
9:56 AM 54.0 °F 52.0 °F 93% 29.79 in 10.0 mi WSW 3.5 mph - N/A   Overcast
10:16 AM 53.6 °F 53.6 °F 100% 29.78 in 10.0 mi West 6.9 mph - N/A   Overcast
10:32 AM 55.4 °F 53.6 °F 94% 29.77 in 10.0 mi West 4.6 mph - N/A   Overcast
10:56 AM 55.9 °F 53.1 °F 90% 29.79 in 10.0 mi WSW 11.5 mph - N/A   Overcast
11:56 AM 59.0 °F 50.0 °F 72% 29.80 in 10.0 mi WNW 16.1 mph 23.0 mph N/A   Overcast
12:56 PM 62.1 °F 46.0 °F 56% 29.79 in 10.0 mi WNW 9.2 mph 17.3 mph N/A   Clear
1:56 PM 60.1 °F 44.1 °F 55% 29.80 in 10.0 mi WNW 8.1 mph 17.3 mph N/A   Mostly Cloudy
2:56 PM 64.0 °F 42.1 °F 45% 29.80 in 10.0 mi WNW 10.4 mph - N/A   Mostly Cloudy
3:56 PM 62.1 °F 37.9 °F 41% 29.84 in 10.0 mi West 12.7 mph 19.6 mph N/A   Mostly Cloudy
4:56 PM 61.0 °F 37.9 °F 42% 29.86 in 10.0 mi WNW 8.1 mph - N/A   Mostly Cloudy
5:56 PM 57.0 °F 39.0 °F 51% 29.90 in 10.0 mi WSW 10.4 mph - N/A   Clear
6:56 PM 55.0 °F 39.0 °F 55% 29.94 in 10.0 mi WSW 6.9 mph - N/A   Clear
7:56 PM 54.0 °F 37.0 °F 53% 29.99 in 10.0 mi WSW 9.2 mph - N/A   Clear
8:56 PM 52.0 °F 37.0 °F 57% 30.01 in 10.0 mi WSW 8.1 mph - N/A   Clear
9:56 PM 51.1 °F 36.0 °F 56% 30.04 in 10.0 mi SW 5.8 mph - N/A   Clear
10:56 PM 51.1 °F 36.0 °F 56% 30.04 in 10.0 mi WSW 9.2 mph - N/A   Clear
11:56 PM 51.1 °F 36.0 °F 56% 30.06 in 10.0 mi Calm Calm - N/A   Clear